When you browse on this site, cookies collect data to enhance your experience and personalize the content and advertising you see.
Visit our Privacy Policy to learn more. By continuing to use the site, you agree to this use of cookies and data.
  • In Hungary
  • List of Countries
  • For 7 days
  • Water Temperature
  • Satellite Maps
  • Weather Map
  • News
  • Weather Widgets
  • user-avatar
    Login

    Hourly Weather Aci Sant'Antonio

    Today, 12 December, Wednesday

    Time Temperature Precipitation Wind Pressure Humidity
    00:00 +8°C° 0 mm 2 mps 735 mmHg 68%
    01:00 +8°C° 0 mm 2 mps 735 mmHg 69%
    02:00 +9°C° 0 mm 1 mps 735 mmHg 70%
    03:00 +8°C° 0 mm 1 mps 735 mmHg 71%
    04:00 +8°C° 0 mm 1 mps 735 mmHg 72%
    05:00 +8°C° 0 mm 1 mps 735 mmHg 72%
    06:00 +8°C° 0 mm 1 mps 735 mmHg 73%
    07:00 +8°C° 0 mm 1 mps 735 mmHg 73%
    08:00 +10°C° 0 mm 1 mps 735 mmHg 67%
    09:00 +11°C° 0 mm 1 mps 736 mmHg 62%
    10:00 +13°C° 0 mm 1 mps 736 mmHg 56%
    11:00 +14°C° 0 mm 1 mps 736 mmHg 55%
    12:00 +14°C° 0 mm 1 mps 735 mmHg 54%
    13:00 +15°C° 0 mm 2 mps 735 mmHg 52%
    14:00 +14°C° 0 mm 2 mps 735 mmHg 57%
    15:00 +14°C° 0 mm 2 mps 735 mmHg 61%
    16:00 +13°C° 0 mm 2 mps 734 mmHg 65%
    17:00 +13°C° 0 mm 1 mps 734 mmHg 70%
    18:00 +12°C° 0 mm 1 mps 734 mmHg 75%
    19:00 +11°C° 0 mm 1 mps 734 mmHg 80%
    20:00 +11°C° 0 mm 1 mps 734 mmHg 81%
    21:00 +11°C° 0 mm 1 mps 734 mmHg 82%
    22:00 +11°C° 0 mm 1 mps 734 mmHg 83%
    23:00 +11°C° 0 mm 1 mps 734 mmHg 83%

    Tomorrow, 13 December, Thursday

    Time Temperature Precipitation Wind Pressure Humidity
    00:00 +10°C° 0 mm 1 mps 734 mmHg 84%
    01:00 +10°C° 0 mm 1 mps 734 mmHg 84%
    02:00 +10°C° 0 mm 1 mps 733 mmHg 84%
    03:00 +9°C° 0 mm 2 mps 733 mmHg 84%
    04:00 +9°C° 0 mm 2 mps 733 mmHg 84%
    05:00 +9°C° 0 mm 2 mps 733 mmHg 84%
    06:00 +9°C° 0 mm 2 mps 733 mmHg 84%
    07:00 +9°C° 0 mm 2 mps 733 mmHg 84%
    08:00 +10°C° 0 mm 2 mps 733 mmHg 79%
    09:00 +13°C° 0 mm 2 mps 733 mmHg 74%
    10:00 +14°C° 0 mm 2 mps 733 mmHg 68%
    11:00 +14°C° 0 mm 3 mps 733 mmHg 66%
    12:00 +16°C° 0 mm 3 mps 732 mmHg 63%
    13:00 +16°C° 0 mm 3 mps 732 mmHg 61%
    14:00 +16°C° 0 mm 3 mps 732 mmHg 64%
    15:00 +15°C° 0 mm 2 mps 732 mmHg 67%
    16:00 +15°C° 0 mm 2 mps 731 mmHg 70%
    17:00 +14°C° 0 mm 2 mps 731 mmHg 76%
    18:00 +13°C° 0 mm 2 mps 732 mmHg 81%
    19:00 +12°C° 0 mm 2 mps 732 mmHg 86%
    20:00 +12°C° 0 mm 2 mps 732 mmHg 86%
    21:00 +12°C° 0 mm 2 mps 731 mmHg 87%
    22:00 +12°C° 0 mm 2 mps 731 mmHg 87%
    23:00 +11°C° 0 mm 3 mps 731 mmHg 87%

    Day after tomorrow, 14 December, Friday

    Time Temperature Precipitation Wind Pressure Humidity
    00:00 +11°C° 0 mm 3 mps 731 mmHg 87%
    01:00 +11°C° 0 mm 3 mps 731 mmHg 87%
    02:00 +11°C° 0 mm 3 mps 730 mmHg 86%
    03:00 +10°C° 0 mm 3 mps 730 mmHg 85%
    04:00 +10°C° 0 mm 4 mps 729 mmHg 84%
    05:00 +10°C° 0 mm 4 mps 729 mmHg 84%
    06:00 +10°C° 0 mm 4 mps 729 mmHg 84%
    07:00 +10°C° 0 mm 4 mps 729 mmHg 84%
    08:00 +12°C° 0 mm 4 mps 729 mmHg 79%
    09:00 +13°C° 0 mm 4 mps 729 mmHg 73%
    10:00 +14°C° 0 mm 4 mps 728 mmHg 67%
    11:00 +15°C° 0 mm 5 mps 728 mmHg 64%
    12:00 +16°C° 0 mm 5 mps 727 mmHg 61%
    13:00 +16°C° 0 mm 5 mps 727 mmHg 58%
    14:00 +16°C° 0.1 mm 5 mps 727 mmHg 62%
    15:00 +15°C° 0.1 mm 4 mps 726 mmHg 66%
    16:00 +14°C° 0.1 mm 3 mps 726 mmHg 70%
    17:00 +13°C° 0.4 mm 3 mps 726 mmHg 74%
    18:00 +13°C° 0.4 mm 3 mps 726 mmHg 79%
    19:00 +13°C° 0.4 mm 2 mps 726 mmHg 83%
    20:00 +13°C° 0.8 mm 2 mps 727 mmHg 83%
    21:00 +12°C° 0.8 mm 2 mps 727 mmHg 83%
    22:00 +12°C° 0.8 mm 2 mps 727 mmHg 83%
    23:00 +12°C° 0.2 mm 2 mps 726 mmHg 83%

    15 December, Saturday

    Time Temperature Precipitation Wind Pressure Humidity
    00:00 +12°C° 0.2 mm 1 mps 726 mmHg 83%
    01:00 +11°C° 0.2 mm 1 mps 726 mmHg 83%
    02:00 +11°C° 0.1 mm 1 mps 726 mmHg 84%
    03:00 +11°C° 0.1 mm 1 mps 726 mmHg 84%
    04:00 +11°C° 0.1 mm 1 mps 726 mmHg 84%
    05:00 +10°C° 0 mm 1 mps 726 mmHg 85%
    06:00 +9°C° 0 mm 2 mps 727 mmHg 85%
    07:00 +9°C° 0 mm 2 mps 727 mmHg 85%
    08:00 +10°C° 0 mm 2 mps 728 mmHg 79%
    09:00 +13°C° 0 mm 2 mps 728 mmHg 74%
    10:00 +14°C° 0 mm 2 mps 729 mmHg 68%
    11:00 +13°C° 0 mm 3 mps 729 mmHg 64%
    12:00 +14°C° 0 mm 3 mps 729 mmHg 60%
    13:00 +16°C° 0 mm 3 mps 729 mmHg 56%
    14:00 +16°C° 0 mm 3 mps 729 mmHg 59%
    15:00 +14°C° 0 mm 3 mps 729 mmHg 62%
    16:00 +14°C° 0 mm 3 mps 729 mmHg 64%
    17:00 +13°C° 0 mm 3 mps 730 mmHg 69%
    18:00 +12°C° 0 mm 3 mps 730 mmHg 73%
    19:00 +11°C° 0 mm 3 mps 731 mmHg 78%
    20:00 +11°C° 0 mm 3 mps 731 mmHg 79%
    21:00 +11°C° 0 mm 3 mps 731 mmHg 80%
    22:00 +10°C° 0 mm 3 mps 732 mmHg 82%
    23:00 +10°C° 0 mm 3 mps 732 mmHg 82%

    16 December, Sunday

    Time Temperature Precipitation Wind Pressure Humidity
    00:00 +10°C° 0 mm 3 mps 732 mmHg 82%
    01:00 +10°C° 0 mm 3 mps 732 mmHg 83%
    02:00 +10°C° 0 mm 3 mps 733 mmHg 83%
    03:00 +10°C° 0 mm 3 mps 733 mmHg 83%
    04:00 +10°C° 0 mm 3 mps 733 mmHg 83%
    05:00 +10°C° 0 mm 3 mps 734 mmHg 82%
    06:00 +10°C° 0 mm 3 mps 734 mmHg 82%
    07:00 +10°C° 0 mm 3 mps 734 mmHg 82%
    08:00 +11°C° 0 mm 3 mps 735 mmHg 77%
    09:00 +12°C° 0 mm 3 mps 735 mmHg 72%
    10:00 +13°C° 0 mm 4 mps 736 mmHg 67%
    11:00 +13°C° 0 mm 4 mps 736 mmHg 64%
    12:00 +13°C° 0 mm 4 mps 736 mmHg 61%
    13:00 +14°C° 0 mm 4 mps 736 mmHg 57%
    14:00 +13°C° 0 mm 4 mps 736 mmHg 59%
    15:00 +13°C° 0 mm 4 mps 736 mmHg 61%
    16:00 +12°C° 0 mm 4 mps 736 mmHg 63%
    17:00 +11°C° 0 mm 4 mps 737 mmHg 67%
    18:00 +10°C° 0 mm 4 mps 737 mmHg 70%
    19:00 +9°C° 0 mm 3 mps 737 mmHg 74%
    20:00 +9°C° 0 mm 3 mps 738 mmHg 75%
    21:00 +9°C° 0 mm 3 mps 738 mmHg 75%
    22:00 +8°C° 0 mm 3 mps 738 mmHg 76%
    23:00 +8°C° 0 mm 3 mps 738 mmHg 76%

    17 December, Monday

    Time Temperature Precipitation Wind Pressure Humidity
    00:00 +8°C° 0 mm 2 mps 738 mmHg 75%
    01:00 +8°C° 0 mm 2 mps 739 mmHg 75%
    02:00 +8°C° 0 mm 2 mps 739 mmHg 75%
    03:00 +8°C° 0 mm 2 mps 739 mmHg 74%
    04:00 +9°C° 0 mm 1 mps 739 mmHg 73%
    05:00 +9°C° 0 mm 1 mps 739 mmHg 72%
    06:00 +9°C° 0 mm 1 mps 739 mmHg 71%
    07:00 +9°C° 0 mm 1 mps 739 mmHg 70%
    08:00 +11°C° 0 mm 1 mps 740 mmHg 63%
    09:00 +12°C° 0 mm 1 mps 740 mmHg 57%
    10:00 +14°C° 0 mm 1 mps 740 mmHg 50%
    11:00 +15°C° 0 mm 2 mps 740 mmHg 48%
    12:00 +16°C° 0 mm 2 mps 740 mmHg 46%
    13:00 +17°C° 0 mm 2 mps 739 mmHg 44%
    14:00 +16°C° 0 mm 2 mps 739 mmHg 49%
    15:00 +16°C° 0 mm 2 mps 739 mmHg 53%
    16:00 +15°C° 0 mm 2 mps 739 mmHg 57%
    17:00 +14°C° 0 mm 2 mps 739 mmHg 59%
    18:00 +13°C° 0 mm 2 mps 739 mmHg 61%
    19:00 +12°C° 0 mm 2 mps 739 mmHg 63%
    20:00 +12°C° 0 mm 2 mps 739 mmHg 62%
    21:00 +12°C° 0 mm 2 mps 739 mmHg 60%
    22:00 +12°C° 0 mm 2 mps 739 mmHg 58%
    23:00 +12°C° 0 mm 2 mps 739 mmHg 59%
    Show more